Preview of NWS' New Version of Forecast
This preview is not operational and should not be used for support decisions.

Regional Weather Roundup (RWR)

Issued by National Weather Service (NWS)

                            
000
ASUS43 KDTX 211301
RWRMI 
MICHIGAN HOURLY REGIONAL WEATHER ROUNDUP
NATIONAL WEATHER SERVICE DETROIT/PONTIAC MI
900 AM EDT SUN APR 21 2019

NOTE: "FAIR" INDICATES FEW OR NO CLOUDS BELOW 12,000 FEET WITH NO
SIGNIFICANT WEATHER AND/OR OBSTRUCTION TO VISIBILITY.

MIZ047>049-052>055-059>063-066>070-074>076-081>083-211400-
SOUTHEAST LOWER MICHIGAN
  
CITY           SKY/WX    TMP DP  RH WIND       PRES   REMARKS
ADRIAN         FAIR      44  40  85 CALM      30.03R                  
ALMA           CLOUDY    47  42  84 W3        30.01R                  
ANN ARBOR      FAIR      45  42  89 S3        30.01R                  
BAD AXE        CLOUDY    43  39  86 W5        29.97R                  
CARO           CLOUDY    41  39  92 S3        29.98R                  
DETROIT CITY   FAIR      47  41  80 W3        30.00R                  
DETROIT        PTSUNNY   46  41  82 CALM      30.01R                  
FLINT          CLOUDY    42  40  92 SW5       30.01R                  
GROSSE ILE     CLOUDY    45  42  91 CALM      30.01R                  
HILLSDALE      CLOUDY    46  43  89 W5        30.01R                  
HOWELL         CLOUDY    41  40  95 W6        30.01R                  

CITY           SKY/WX    TMP DP  RH WIND       PRES   REMARKS
JACKSON        CLOUDY    43  42  97 W5        30.02R                  
LAMBERTVILLE   CLOUDY    45  42  91 CALM      30.02R                  
LANSING        CLOUDY    42  41  96 SW5       30.01R                  
LAPEER         CLOUDY    43  42  95 CALM      30.00R                  
MASON          CLOUDY    42  41  97 CALM      30.01S                  
MONROE         CLOUDY    45  44  98 CALM      30.01R                  
MT. CLEMENS    MOSUNNY   48  46  93 W5        29.98R                  
PONTIAC        PTSUNNY   45  42  89 W9        29.99R                  
PORT HOPE        N/A     46  39  76 W8        29.94R                  
TRI CITIES     CLOUDY    45  41  86 W9        29.99R                  
MIDLAND        CLOUDY    46  40  77 SW3       29.98R                  
TROY           PTSUNNY   47  41  80 W6        30.02R                  
SAGINAW HB     CLOUDY    45  41  87 SW3       29.99R                  
$$
MIZ043>046-050>051-056>058-064>065-071>073-077>080-211400-
SOUTHWEST LOWER MICHIGAN
  
CITY           SKY/WX    TMP DP  RH WIND       PRES   REMARKS
BATTLE CREEK   CLOUDY    42  39  89 CALM      30.02R                  
BENTON HARBOR  FAIR      46  32  58 S3        30.00R                  
BIG RAPIDS     FAIR      46  43  88 CALM      29.97R                  
COLDWATER      PTSUNNY   42  42 100 CALM      30.03R FOG              
FREMONT        FAIR      46  39  76 SW6       29.98R                  
HOLLAND        CLOUDY    45  36  70 SW7       30.00R                  
GRAND RAPIDS   PTSUNNY   42  39  89 S6        29.99R                  
IONIA          CLOUDY    44  40  83 SW6       29.99S                  
KALAMAZOO      PTSUNNY   47  42  83 S3        30.02R                  
LUDINGTON      FAIR      50  35  55 S6        29.95S                  
MARSHALL       PTSUNNY   40  40 100 CALM      30.02R                  
MOUNT PLEASANT CLOUDY    49  42  78 SW5       29.98R                  
MUSKEGON       CLOUDY    46  31  55 SW3       29.99R                  
SOUTH HAVEN    CLOUDY    44  35  70 CALM      30.00R                  
$$
MIZ016>042-211400-
NORTHERN LOWER MICHIGAN
  
CITY           SKY/WX    TMP DP  RH WIND       PRES   REMARKS
ALPENA         CLOUDY    48  28  46 W6        29.95R                  
BEAVER ISLAND  CLOUDY    47  35  64 SW12G18   29.93R                  
BELLAIRE       CLOUDY    46  37  70 CALM      29.96R                  
CADILLAC       FAIR      50  38  63 SW7       29.95R                  
CHARLEVOIX     PTSUNNY   49  33  53 S5        29.97R                  
FRANKFORT      PTSUNNY   54  38  54 SW5       29.94F                  
GAYLORD        CLOUDY    45  27  49 W3        29.94R                  
HARBOR SPRINGS CLOUDY    49  26  41 SW5       29.95R                  
HOUGHTON LAKE  CLOUDY    47  37  68 SW5       29.96R                  
MANISTEE       FAIR      52  40  63 VRB3      29.96R                  
OSCODA         PTSUNNY   52  32  47 W6        29.94R                  
PELLSTON       CLOUDY    47  31  53 CALM      29.94R                  
ROGERS CITY    CLOUDY    49  25  38 CALM      29.97R                  
TRAVERSE CITY  PTSUNNY   52  38  58 S5        29.93R                  
$$
MIZ007>008-015-211400-
EASTERN UPPER MICHIGAN
  
CITY           SKY/WX    TMP DP  RH WIND       PRES   REMARKS
KINROSS        CLOUDY    45  27  49 SW5       29.95R                  
MACKINAC ISLAN CLOUDY    47  25  42 NW3       29.95R                  
NEWBERRY       CLOUDY    45  18  34 S7        29.91R                  
S. S. MARIE    CLOUDY    47  29  49 CALM      29.94R                  
MUNISING         N/A     40  32  73 CALM      29.93R                  
$$
MIZ004>006-011>014-085-211400-
CENTRAL UPPER MICHIGAN
  
CITY           SKY/WX    TMP DP  RH WIND       PRES   REMARKS
MANISTIQUE     CLOUDY    40  28  61 S8        29.91R WCI  35          
ESCANABA       CLOUDY    44  31  60 N5        29.91R                  
MENOMINEE      CLOUDY    52  30  43 SW3       29.90R                  
SAWYER-GWINN   LGT RAIN  43  34  70 NE6       29.90R                  
$$
MIZ001>003-009>011-084-211400-
WESTERN UPPER MICHIGAN
  
CITY           SKY/WX    TMP DP  RH WIND       PRES   REMARKS
IRON MOUNTAIN  CLOUDY    46  31  55 NW6       29.90R                  
HOUGHTON       LGT RAIN  44  33  65 NE6       29.96R                  
COPPER HARBOR    N/A     38  34  85 N7        29.97R WCI  33          
IRONWOOD       PTSUNNY   42  40  92 E6        29.95F                  
$$

ABBREVIATIONS USED IN REMARKS
   TC - TEMPERATURE IN CELSIUS
  WCI - WIND CHILL INDEX
   HX - HEAT INDEX
  VSB - VISIBILITY